EW7038 Weather Reports


Display with metric or nautical units.
time (UTC)temp
F
wind
direction
speed
MPH
gust
MPH
rain 1hr
in
rain 24hr
in
rain mn
in
humidity
%
barometer
mb
20260504204303 70 275 11.0 31.0 0.00 0.00 0.00 44 1008.1
20260504203804 69 293 13.0 30.0 0.00 0.00 0.00 44 1008.2
20260504203304 69 275 15.0 32.0 0.00 0.00 0.00 44 1008.1
20260504202803 69 293 14.0 31.0 0.00 0.00 0.00 45 1008.1
20260504201803 69 281 13.0 31.0 0.00 0.00 0.00 44 1008.2
20260504201303 69 250 15.0 29.0 0.00 0.00 0.00 45 1008.3
20260504200804 69 271 17.0 31.0 0.00 0.00 0.00 45 1008.3
20260504200303 69 258 14.0 26.0 0.00 0.00 0.00 44 1008.3
20260504195304 69 259 10.0 24.0 0.00 0.00 0.00 44 1008.3
20260504193803 69 269 11.0 21.0 0.00 0.00 0.00 44 1008.4
20260504193303 69 275 15.0 29.0 0.00 0.00 0.00 45 1008.4
20260504192803 69 270 15.0 26.0 0.00 0.00 0.00 44 1008.4
20260504192304 68 287 10.0 25.0 0.00 0.00 0.00 45 1008.4
20260504191803 69 281 14.0 26.0 0.00 0.00 0.00 45 1008.5
20260504191303 69 259 15.0 31.0 0.00 0.00 0.00 45 1008.6
20260504190802 68 280 12.0 23.0 0.00 0.00 0.00 44 1008.4
20260504190303 68 261 13.0 25.0 0.00 0.00 0.00 44 1008.6
20260504185803 68 275 11.0 28.0 0.00 0.00 0.00 45 1008.6
20260504185304 68 274 14.0 25.0 0.00 0.00 0.00 46 1008.6
20260504184803 68 284 15.0 28.0 0.00 0.00 0.00 46 1008.6
20260504184303 68 267 13.0 22.0 0.00 0.00 0.00 46 1008.6
20260504183803 67 278 9.0 21.0 0.00 0.00 0.00 46 1008.5
20260504183303 67 290 12.0 24.0 0.00 0.00 0.00 47 1008.6
20260504182803 67 280 10.0 22.0 0.00 0.00 0.00 48 1008.7
20260504182304 67 268 14.0 23.0 0.00 0.00 0.00 48 1008.6
20260504181803 66 276 12.0 22.0 0.00 0.00 0.00 49 1008.6
20260504181304 66 248 12.0 20.0 0.00 0.00 0.00 49 1008.6
20260504180803 66 260 10.0 21.0 0.00 0.00 0.00 49 1008.8
20260504180303 66 274 12.0 23.0 0.00 0.00 0.00 49 1008.9
20260504175803 65 281 13.0 30.0 0.00 0.00 0.00 49 1008.9
20260504175304 65 288 13.0 23.0 0.00 0.00 0.00 49 1008.9
20260504174303 65 271 12.0 24.0 0.00 0.00 0.00 50 1008.9
20260504173803 65 266 12.0 32.0 0.00 0.00 0.00 50 1008.8
20260504173303 65 276 12.0 28.0 0.00 0.00 0.00 50 1008.8
20260504172804 65 291 13.0 28.0 0.00 0.00 0.00 50 1008.8
20260504171303 64 262 8.0 20.0 0.00 0.00 0.00 51 1008.8
20260504170803 64 264 12.0 24.0 0.00 0.00 0.00 51 1008.8
20260504170303 64 276 9.0 21.0 0.00 0.00 0.00 52 1008.8
20260504160303 62 263 13.0 24.0 0.00 0.00 0.00 53 1009.1
20260504150804 62 253 8.0 21.0 0.00 0.00 0.00 53 1008.9
20260504150303 62 231 12.0 26.0 0.00 0.00 0.00 54 1008.9
20260504141303 63 299 14.0 25.0 0.00 0.00 0.00 50 1008.5
20260504140303 63 306 9.0 21.0 0.00 0.00 0.00 52 1008.5
20260504130803 56 114 1.0 3.0 0.00 0.00 0.00 64 1008.1
20260504120304 58 301 5.0 10.0 0.00 0.00 0.00 59 1007.8
20260504100303 59 218 1.0 1.0 0.00 0.00 0.00 57 1007.7
20260504081804 60 156 2.0 3.0 0.00 0.00 0.00 55 1007.7
20260504080303 60 163 3.0 3.0 0.00 0.00 0.00 55 1007.7
20260504070303 62 157 2.0 3.0 0.00 0.00 0.00 52 1007.6
20260504050303 71 115 1.0 1.0 0.00 0.00 0.00 37 1007.2
20260504045803 70 97 2.0 2.0 0.00 0.00 0.00 38 1007.1
20260504044803 68 167 2.0 3.0 0.00 0.00 0.00 41 1007.1
20260504044303 68 164 2.0 3.0 0.00 0.00 0.00 42 1007.0
20260504043803 68 160 2.0 3.0 0.00 0.00 0.00 42 1007.0
20260504043303 68 159 2.0 3.0 0.00 0.00 0.00 43 1006.9
20260504042803 69 157 3.0 3.0 0.00 0.00 0.00 42 1006.8
20260504041803 70 149 2.0 3.0 0.00 0.00 0.00 36 1006.6
20260504041303 71 153 2.0 3.0 0.00 0.00 0.00 38 1006.5
20260504040803 73 153 2.0 3.0 0.00 0.00 0.00 34 1006.4
20260504040303 74 147 2.0 3.0 0.00 0.00 0.00 31 1006.3
20260504035803 74 151 2.0 2.0 0.00 0.00 0.00 30 1006.3
20260504035304 74 148 2.0 2.0 0.00 0.00 0.00 30 1006.2
20260504034803 75 145 2.0 2.0 0.00 0.00 0.00 30 1006.1
20260504034303 76 150 2.0 2.0 0.00 0.00 0.00 29 1006.1
20260504033803 76 144 2.0 2.0 0.00 0.00 0.00 28 1006.0
20260504033303 77 137 1.0 2.0 0.00 0.00 0.00 28 1005.9
20260504032803 76 144 2.0 2.0 0.00 0.00 0.00 28 1005.8
20260504032304 76 145 2.0 2.0 0.00 0.00 0.00 28 1005.8
20260504031804 77 152 2.0 2.0 0.00 0.00 0.00 29 1005.8
20260504031303 78 144 2.0 2.0 0.00 0.00 0.00 27 1005.8
20260504030303 77 157 2.0 2.0 0.00 0.00 0.00 30 1005.8
20260504025803 78 150 2.0 2.0 0.00 0.00 0.00 28 1005.7
20260504024803 80 157 2.0 2.0 0.00 0.00 0.00 27 1005.7
20260504024304 81 140 1.0 1.0 0.00 0.00 0.00 26 1005.7
20260504023804 81 155 1.0 1.0 0.00 0.00 0.00 26 1005.7
20260504023303 82 141 1.0 1.0 0.00 0.00 0.00 26 1005.7
20260504022304 83 167 1.0 2.0 0.00 0.00 0.00 24 1005.7
20260504020303 85 135 1.0 2.0 0.00 0.00 0.00 23 1005.7
20260504015304 88 126 1.0 2.0 0.00 0.00 0.00 20 1005.8
20260504014803 89 111 0.0 1.0 0.00 0.00 0.00 20 1005.9
20260504014303 90 302 0.0 1.0 0.00 0.00 0.00 20 1005.9
20260504013803 90 342 1.0 1.0 0.00 0.00 0.00 20 1006.0
20260504013303 90 41 1.0 1.0 0.00 0.00 0.00 19 1006.0
20260504012803 90 337 1.0 1.0 0.00 0.00 0.00 19 1006.0
20260504012304 89 306 1.0 3.0 0.00 0.00 0.00 19 1006.1
20260504011804 89 26 1.0 1.0 0.00 0.00 0.00 19 1006.1
20260504011303 89 6 1.0 2.0 0.00 0.00 0.00 19 1006.2
20260504005804 89 167 1.0 2.0 0.00 0.00 0.00 19 1006.4
20260504005304 90 43 1.0 2.0 0.00 0.00 0.00 19 1006.4
20260504004803 89 306 1.0 2.0 0.00 0.00 0.00 19 1006.5
20260504004303 89 5 1.0 2.0 0.00 0.00 0.00 19 1006.5
20260504003303 89 105 1.0 3.0 0.00 0.00 0.00 19 1006.5
20260504001803 89 356 1.0 2.0 0.00 0.00 0.00 19 1006.7
20260504001303 89 34 1.0 6.0 0.00 0.00 0.00 20 1006.7
20260504000803 89 351 1.0 5.0 0.00 0.00 0.00 19 1006.8
20260504000303 89 23 1.0 3.0 0.00 0.00 0.00 19 1006.8
20260503235803 90 118 1.0 3.0 0.00 0.00 0.00 19 1006.8
20260503235304 89 317 1.0 3.0 0.00 0.00 0.00 19 1006.9
20260503234804 89 75 1.0 5.0 0.00 0.00 0.00 19 1006.9
20260503233803 88 12 1.0 7.0 0.00 0.00 0.00 19 1007.0
20260503233303 89 43 2.0 3.0 0.00 0.00 0.00 19 1007.1
20260503232803 89 353 1.0 2.0 0.00 0.00 0.00 19 1007.2
20260503232305 89 345 1.0 2.0 0.00 0.00 0.00 19 1007.2
20260503231803 89 23 1.0 2.0 0.00 0.00 0.00 18 1007.3
20260503231303 88 63 2.0 5.0 0.00 0.00 0.00 18 1007.4
20260503230803 88 59 2.0 5.0 0.00 0.00 0.00 19 1007.5
20260503225804 88 7 2.0 3.0 0.00 0.00 0.00 19 1007.7
20260503225304 88 5 1.0 2.0 0.00 0.00 0.00 19 1007.9
20260503224803 88 11 2.0 3.0 0.00 0.00 0.00 19 1007.8
20260503224304 88 38 2.0 3.0 0.00 0.00 0.00 19 1007.9
20260503223803 88 30 3.0 5.0 0.00 0.00 0.00 18 1008.0
20260503222803 89 49 2.0 3.0 0.00 0.00 0.00 19 1008.2
20260503222304 88 348 1.0 3.0 0.00 0.00 0.00 20 1008.2
20260503221803 87 12 1.0 2.0 0.00 0.00 0.00 20 1008.4
20260503221303 86 322 2.0 6.0 0.00 0.00 0.00 20 1008.5
20260503220803 87 76 2.0 7.0 0.00 0.00 0.00 19 1008.6
20260503220303 87 33 1.0 3.0 0.00 0.00 0.00 20 1008.7
20260503215804 87 90 2.0 5.0 0.00 0.00 0.00 18 1008.8
20260503215304 86 30 1.0 3.0 0.00 0.00 0.00 21 1008.8
20260503214803 86 34 2.0 3.0 0.00 0.00 0.00 20 1008.9
20260503214303 86 332 1.0 5.0 0.00 0.00 0.00 21 1008.9
20260503213803 85 24 1.0 5.0 0.00 0.00 0.00 22 1009.0
20260503213303 85 61 2.0 3.0 0.00 0.00 0.00 22 1009.1
20260503212803 84 87 2.0 5.0 0.00 0.00 0.00 21 1009.2
20260503212305 84 33 2.0 5.0 0.00 0.00 0.00 22 1009.2
20260503211803 84 347 2.0 7.0 0.00 0.00 0.00 22 1009.3
20260503210803 83 22 2.0 5.0 0.00 0.00 0.00 24 1009.5
20260503210304 83 355 2.0 5.0 0.00 0.00 0.00 24 1009.5
20260503205804 83 0 2.0 7.0 0.00 0.00 0.00 24 1009.6
20260503205304 83 18 2.0 3.0 0.00 0.00 0.00 25 1009.6
20260503204803 83 330 1.0 2.0 0.00 0.00 0.00 25 1009.8